[[{"header":{"parameterUnit":"m.s-1","parameterCategory":1,"la1":30.2991,"la2":30.254,"lo1":-89.0895,"lo2":-89.0444,"dy":0.0017,"dx":0.0017,"nx":28,"ny":28,"refTime":"2023-09-11T03:00:00:Z","depth":0,"parameterNumber":2,"parameterNumberName":"U-component_of_WINDS"},"data":[0,0,0,0,0,0,0,0,0,0,0,0,0,0,0,0,0,0,0,0,0,0,0,0,0,0,0,0,0,0,0,0,0,0,0,0,0,0,0,0,0,0,0,0,0,0,0,0,0,0,0,0,0,0,0,0,0,0,0.774,0.774,0,0.7782,0.7783,0.7783,0.7814,0.7814,0.7814,0.7814,0.7858,0.7859,0.786,0,0,0,0,0,0,0,0,0,0,0,0,0,0.7687,0.7688,0.774,0.774,0.7741,0.7782,0.7783,0.7783,0.7814,0.7814,0.7814,0.7815,0.7857,0.7859,0.786,0,0,0,0,0,0,0,0,0,0,0,0,0,0.7718,0.7688,0.774,0.7761,0.7763,0.7782,0.7783,0.7783,0.7814,0.7814,0.7814,0.7815,0.7857,0.7858,0.786,0.7861,0,0,0.7864,0.7865,0,0,0,0,0,0,0,0,0.7716,0.772,0.7757,0.776,0.7762,0.7793,0.778,0.7809,0.7813,0.7795,0.7814,0.7815,0.7836,0.7839,0.7846,0.7863,0.7864,0.7864,0.7865,0.7866,0.7866,0,0,0,0,0,0,0,0.7714,0.7718,0.7757,0.7758,0.7761,0.7769,0.7774,0.7786,0.7813,0.7796,0.7799,0.7803,0.7837,0.7845,0.7847,0.7865,0.7864,0.7865,0.7866,0.7867,0.7886,0.7886,0,0,0,0,0,0,0.7708,0.7716,0.7755,0.7758,0.774,0.777,0.7775,0.7783,0.7812,0.7817,0.7803,0.7804,0.7842,0.7846,0.7849,0.7853,0.7866,0.7867,0.7868,0.7886,0.7886,0.7886,0,0,0,0,0,0,0.7707,0.7711,0.7754,0.7738,0.7744,0.777,0.7779,0.7783,0.7791,0.7817,0.7822,0.7805,0.7843,0.7847,0.7858,0.7855,0.7867,0.7869,0.7887,0.7886,0.7886,0.786,0,0,0,0,0,0,0.7705,0.7711,0.7711,0.7737,0.7744,0.7761,0.7778,0.7784,0.7793,0.7796,0.7821,0.7826,0.7843,0.7856,0.7859,0.7857,0.787,0.7887,0.7887,0.7886,0.7861,0.7859,0.7856,0,0,0,0,0,0.7703,0.7701,0.7711,0.7715,0.7745,0.7761,0.7765,0.7785,0.7793,0.7793,0.7811,0.7825,0.7855,0.7856,0.7861,0.7859,0.7888,0.7887,0.7886,0.7862,0.7859,0.7856,0,0,0,0,0,0,0.7673,0.7705,0.7716,0.7722,0.7739,0.7766,0.7767,0.7781,0.7795,0.7797,0.7822,0.7827,0.7836,0.7848,0.785,0.7862,0.7873,0.7873,0.7853,0.785,0.7848,0.7845,0.7871,0,0,0,0,0,0.7668,0.7678,0.7705,0.7708,0.7716,0.774,0.7748,0.7762,0.778,0.7787,0.7805,0.7822,0.7836,0.7844,0.7857,0.7863,0.787,0.7864,0.7862,0.786,0.786,0.7865,0.7863,0.7884,0.7884,0.7884,0,0,0.7656,0.7674,0.7679,0.7703,0.7717,0.7728,0.7746,0.7755,0.7764,0.7789,0.78,0.7814,0.7835,0.7844,0.7848,0.7854,0.7856,0.7859,0.7857,0.7858,0.7864,0.7862,0.786,0.7883,0.7883,0.7883,0,0,0.7639,0.7654,0.7659,0.7673,0.7695,0.7711,0.7713,0.7738,0.7749,0.7761,0.778,0.779,0.7813,0.7827,0.7837,0.7828,0.7842,0.7832,0.782,0.7825,0.7823,0.7822,0.7819,0.7818,0.7832,0.7832,0.7832,0,0.7621,0.7638,0.766,0.7669,0.7679,0.7703,0.7709,0.7722,0.7746,0.7753,0.776,0.779,0.7805,0.7818,0.7816,0.7823,0.7826,0.7829,0.7821,0.782,0.7819,0.7817,0.7816,0.783,0.7831,0.7831,0.7831,0,0.7615,0.7626,0.7628,0.7652,0.7663,0.767,0.7694,0.7702,0.7716,0.7732,0.7745,0.7764,0.7783,0.7787,0.7801,0.7803,0.7806,0.7817,0.7828,0.7816,0.7814,0.7814,0.7829,0.7829,0.7829,0.783,0,0,0.758,0.7617,0.7618,0.7629,0.7656,0.7665,0.7674,0.7693,0.77,0.7717,0.7725,0.7745,0.7755,0.7767,0.7782,0.7787,0.778,0.7797,0.7798,0.7793,0.7784,0.7776,0.7774,0.7789,0.7789,0.7789,0.7783,0,0.7568,0.7585,0.7606,0.7616,0.7627,0.7651,0.7659,0.7677,0.7692,0.7704,0.7722,0.7735,0.7748,0.7755,0.7761,0.7779,0.7778,0.778,0.7798,0.7798,0.7792,0.7774,0.7765,0.7757,0.7782,0.7782,0.7782,0,0.7556,0.7572,0.7583,0.761,0.7616,0.7623,0.7642,0.7653,0.7674,0.7686,0.7699,0.7716,0.7728,0.7738,0.7755,0.7756,0.7765,0.7776,0.7776,0.7778,0.7789,0.7776,0.7755,0.7754,0.7781,0.7781,0.7781,0,0.7529,0.7554,0.7565,0.7574,0.7606,0.761,0.7624,0.7645,0.7655,0.7673,0.768,0.7698,0.7708,0.7722,0.7744,0.775,0.7759,0.7771,0.7769,0.7769,0.777,0.7769,0.7751,0.7775,0.7775,0.7775,0.7776,0,0.7514,0.752,0.7554,0.756,0.7568,0.7593,0.76,0.7616,0.7635,0.7645,0.7667,0.7676,0.7705,0.7718,0.7735,0.7747,0.7751,0.7761,0.7766,0.7759,0.7758,0.7765,0.7766,0.7775,0.7775,0.7775,0.7775,0,0.7485,0.7508,0.7521,0.7551,0.7558,0.7563,0.7588,0.7596,0.7613,0.7626,0.7631,0.7658,0.7675,0.7698,0.7722,0.7734,0.7743,0.7751,0.7736,0.7739,0.7736,0.7736,0.7721,0.7721,0.7745,0.7745,0.7745,0,0.7474,0.7479,0.751,0.7518,0.7531,0.7544,0.7555,0.7581,0.7591,0.7616,0.7621,0.764,0.7655,0.7681,0.7703,0.7722,0.773,0.7724,0.7733,0.7727,0.773,0.773,0.7731,0.7721,0.7721,0.772,0.772,0,0.7451,0.7463,0.7477,0.7497,0.7509,0.7525,0.7543,0.7549,0.7578,0.7589,0.7606,0.7619,0.7643,0.7662,0.7684,0.7698,0.7714,0.7717,0.7718,0.7711,0.7703,0.7708,0.773,0.7717,0.7718,0.7718,0.7718,0.7718,0.7431,0.7438,0.746,0.7476,0.7492,0.7509,0.7517,0.7536,0.7551,0.7573,0.7588,0.7605,0.7627,0.7658,0.7672,0.7686,0.7693,0.7693,0.7694,0.7693,0.7691,0.7701,0.769,0.7691,0.7691,0.7691,0.7691,0,0.741,0.7426,0.7441,0.7465,0.7478,0.7492,0.7513,0.7523,0.7537,0.7557,0.7573,0.7593,0.7612,0.7636,0.7656,0.7663,0.7671,0.7667,0.7667,0.767,0.7684,0.7682,0.7661,0.7661,0.7661,0.7661,0.7661,0.7661,0.74,0.7412,0.7427,0.7447,0.7463,0.748,0.7491,0.7506,0.7522,0.7544,0.7559,0.7575,0.7597,0.762,0.7637,0.7644,0.7651,0.7645,0.7654,0.7666,0.7669,0.7672,0.767,0.7646,0.7646,0.7639,0.7639,0.7639]},{"header":{"parameterUnit":"m.s-1","parameterCategory":1,"la1":30.2991,"la2":30.254,"lo1":-89.0895,"lo2":-89.0444,"dy":0.0017,"dx":0.0017,"nx":28,"ny":28,"refTime":"2023-09-11T03:00:00:Z","depth":0,"parameterNumber":3,"parameterNumberName":"V-component_of_WINDS"},"data":[0,0,0,0,0,0,0,0,0,0,0,0,0,0,0,0,0,0,0,0,0,0,0,0,0,0,0,0,0,0,0,0,0,0,0,0,0,0,0,0,0,0,0,0,0,0,0,0,0,0,0,0,0,0,0,0,0,0,-1.5779,-1.5778,0,-1.5747,-1.5746,-1.5746,-1.5706,-1.5706,-1.5705,-1.5704,-1.5673,-1.5673,-1.5672,0,0,0,0,0,0,0,0,0,0,0,0,0,-1.5808,-1.5807,-1.5779,-1.5778,-1.5778,-1.5747,-1.5746,-1.5746,-1.5706,-1.5706,-1.5705,-1.5704,-1.5673,-1.5673,-1.5672,0,0,0,0,0,0,0,0,0,0,0,0,0,-1.5787,-1.5807,-1.5779,-1.5754,-1.5752,-1.5747,-1.5746,-1.5746,-1.5707,-1.5706,-1.5705,-1.5704,-1.5673,-1.5673,-1.5672,-1.5689,0,0,-1.5671,-1.5671,0,0,0,0,0,0,0,0,-1.5789,-1.5786,-1.5758,-1.5756,-1.5753,-1.5729,-1.5745,-1.5727,-1.5707,-1.5724,-1.5704,-1.5703,-1.5693,-1.5691,-1.5687,-1.5688,-1.5686,-1.5671,-1.5671,-1.5671,-1.5671,0,0,0,0,0,0,0,-1.579,-1.5788,-1.5766,-1.5758,-1.5755,-1.5746,-1.5742,-1.5741,-1.5714,-1.5722,-1.5719,-1.5716,-1.5691,-1.5687,-1.5686,-1.5686,-1.5671,-1.5671,-1.5671,-1.567,-1.57,-1.5701,0,0,0,0,0,0,-1.5795,-1.5789,-1.5767,-1.5765,-1.5769,-1.5746,-1.5742,-1.5738,-1.5714,-1.5709,-1.5717,-1.5714,-1.5688,-1.5686,-1.5684,-1.5703,-1.5671,-1.567,-1.567,-1.5699,-1.57,-1.5701,0,0,0,0,0,0,-1.5796,-1.5793,-1.5768,-1.5776,-1.5772,-1.5747,-1.5743,-1.5738,-1.5734,-1.571,-1.5705,-1.5718,-1.5687,-1.5685,-1.5688,-1.5701,-1.567,-1.567,-1.5698,-1.5699,-1.5701,-1.574,0,0,0,0,0,0,-1.5797,-1.5794,-1.5799,-1.5777,-1.5772,-1.5772,-1.5744,-1.5738,-1.5733,-1.573,-1.5709,-1.5705,-1.5686,-1.5689,-1.5688,-1.57,-1.567,-1.5697,-1.5699,-1.57,-1.5738,-1.5743,-1.5747,0,0,0,0,0,-1.5798,-1.5812,-1.58,-1.5797,-1.5778,-1.5773,-1.5771,-1.5749,-1.5735,-1.574,-1.5725,-1.5706,-1.57,-1.569,-1.5688,-1.5701,-1.5696,-1.5698,-1.57,-1.5735,-1.5742,-1.5747,0,0,0,0,0,0,-1.5837,-1.5808,-1.5795,-1.5801,-1.579,-1.5766,-1.5773,-1.5756,-1.5749,-1.5745,-1.5719,-1.5715,-1.5722,-1.5711,-1.57,-1.5716,-1.5695,-1.5697,-1.5722,-1.5728,-1.5733,-1.5736,-1.5669,0,0,0,0,0,-1.5846,-1.5844,-1.5819,-1.5827,-1.5822,-1.5799,-1.5796,-1.578,-1.5767,-1.5762,-1.5747,-1.5736,-1.5732,-1.5729,-1.5724,-1.5736,-1.5732,-1.5744,-1.5749,-1.5753,-1.5755,-1.5762,-1.5767,-1.5709,-1.5709,-1.5709,0,0,-1.5865,-1.5849,-1.5849,-1.5835,-1.5824,-1.5823,-1.5795,-1.5795,-1.5794,-1.5762,-1.5765,-1.5753,-1.5739,-1.5747,-1.575,-1.5739,-1.577,-1.5756,-1.5759,-1.5759,-1.5765,-1.577,-1.5775,-1.571,-1.571,-1.571,0,0,-1.59,-1.5887,-1.5893,-1.5883,-1.5867,-1.5852,-1.5853,-1.5833,-1.5824,-1.5826,-1.5802,-1.5802,-1.5795,-1.5786,-1.578,-1.5813,-1.5796,-1.5812,-1.5838,-1.5845,-1.5849,-1.5853,-1.5866,-1.587,-1.5815,-1.5815,-1.5815,0,-1.5925,-1.5922,-1.5898,-1.59,-1.5895,-1.5866,-1.5873,-1.5864,-1.5848,-1.5845,-1.5833,-1.5825,-1.5813,-1.5819,-1.5827,-1.5824,-1.5825,-1.5814,-1.585,-1.5854,-1.5857,-1.5869,-1.5874,-1.5817,-1.5817,-1.5816,-1.5816,0,-1.5955,-1.5954,-1.5961,-1.5946,-1.5941,-1.5945,-1.5923,-1.5921,-1.5906,-1.5893,-1.5896,-1.5881,-1.5873,-1.5873,-1.5858,-1.5877,-1.5871,-1.5855,-1.5833,-1.5866,-1.5876,-1.588,-1.582,-1.5819,-1.5819,-1.5818,0,0,-1.6012,-1.5985,-1.5988,-1.5981,-1.5962,-1.5961,-1.5964,-1.5956,-1.5956,-1.5946,-1.5949,-1.5944,-1.5929,-1.5923,-1.5908,-1.5914,-1.5942,-1.5897,-1.5896,-1.5906,-1.5963,-1.5975,-1.5981,-1.593,-1.5931,-1.5931,-1.5964,0,-1.6044,-1.6047,-1.6027,-1.6036,-1.6035,-1.6008,-1.6012,-1.6001,-1.5988,-1.5986,-1.5972,-1.597,-1.595,-1.5947,-1.5951,-1.5937,-1.5953,-1.5934,-1.5933,-1.5933,-1.5937,-1.5986,-1.5999,-1.6031,-1.5968,-1.5969,-1.5969,0,-1.608,-1.6073,-1.6082,-1.6064,-1.6062,-1.6066,-1.6057,-1.6055,-1.6043,-1.6033,-1.6027,-1.6009,-1.6012,-1.5992,-1.5996,-1.5984,-1.5983,-1.5976,-1.5977,-1.5976,-1.5953,-1.5987,-1.604,-1.6045,-1.5975,-1.5975,-1.5974,0,-1.6122,-1.6114,-1.6119,-1.6114,-1.6092,-1.6095,-1.6087,-1.6073,-1.607,-1.6063,-1.6061,-1.6054,-1.6051,-1.6047,-1.6028,-1.6015,-1.6035,-1.6012,-1.6028,-1.6028,-1.6033,-1.6033,-1.6087,-1.6032,-1.6031,-1.6031,-1.6031,0,-1.6159,-1.6166,-1.6137,-1.614,-1.6148,-1.6124,-1.6132,-1.6121,-1.611,-1.6111,-1.6088,-1.609,-1.6064,-1.6063,-1.6049,-1.6055,-1.6054,-1.6047,-1.6043,-1.6049,-1.605,-1.6047,-1.6045,-1.6033,-1.6032,-1.6032,-1.6032,0,-1.6207,-1.6187,-1.6191,-1.6171,-1.6166,-1.6172,-1.6155,-1.6158,-1.6144,-1.6146,-1.6145,-1.6124,-1.6122,-1.6102,-1.6096,-1.6086,-1.6098,-1.609,-1.6102,-1.61,-1.6116,-1.6115,-1.6171,-1.6177,-1.6118,-1.6118,-1.6119,0,-1.6232,-1.6236,-1.6217,-1.6216,-1.6208,-1.6207,-1.6204,-1.6181,-1.6179,-1.6166,-1.6171,-1.6167,-1.6162,-1.616,-1.6145,-1.614,-1.6132,-1.6152,-1.6131,-1.6137,-1.6133,-1.6133,-1.6133,-1.6156,-1.6157,-1.6157,-1.6158,0,-1.6278,-1.6269,-1.6265,-1.6258,-1.6255,-1.6249,-1.6241,-1.6241,-1.6217,-1.6216,-1.6213,-1.621,-1.6204,-1.62,-1.6193,-1.6185,-1.6168,-1.6165,-1.6168,-1.6174,-1.6182,-1.6178,-1.6115,-1.6163,-1.6163,-1.6162,-1.6162,-1.6162,-1.6316,-1.6319,-1.6306,-1.6303,-1.6295,-1.6288,-1.629,-1.6277,-1.6274,-1.6267,-1.6254,-1.6254,-1.6243,-1.6232,-1.6225,-1.6225,-1.6215,-1.6219,-1.6221,-1.6222,-1.6226,-1.6182,-1.6224,-1.6223,-1.6223,-1.6223,-1.6223,0,-1.6362,-1.6352,-1.635,-1.634,-1.6337,-1.6321,-1.6312,-1.6312,-1.6311,-1.6302,-1.6299,-1.6297,-1.6294,-1.6278,-1.6274,-1.6277,-1.6269,-1.6276,-1.6276,-1.6275,-1.6235,-1.6233,-1.6283,-1.6283,-1.6283,-1.6283,-1.6283,-1.6283,-1.6385,-1.639,-1.638,-1.6381,-1.6372,-1.6371,-1.6368,-1.6362,-1.6355,-1.6353,-1.6351,-1.6341,-1.6329,-1.6324,-1.6321,-1.6317,-1.6316,-1.6327,-1.632,-1.6283,-1.6277,-1.6272,-1.627,-1.6327,-1.6327,-1.6359,-1.636,-1.636]}]]